Weather reports worldwide

Advertisment
St-Auban-Sur-Durance, France (7588): temperature & dewpoint: 12.10.2018 19:00:00 - 18.10.2018 19:00:00 (CEST)St-Auban-Sur-Durance, France (7588): temperature 5cm: 12.10.2018 19:00:00 - 18.10.2018 19:00:00 (CEST)St-Auban-Sur-Durance, France (7588): temperature -20cm: 12.10.2018 19:00:00 - 18.10.2018 19:00:00 (CEST)St-Auban-Sur-Durance, France (7588): wind speed & gusts: 12.10.2018 19:00:00 - 18.10.2018 19:00:00 (CEST)St-Auban-Sur-Durance, France (7588): wind direction: 12.10.2018 19:00:00 - 18.10.2018 19:00:00 (CEST)St-Auban-Sur-Durance, France (7588): reduced air pressure: 12.10.2018 19:00:00 - 18.10.2018 19:00:00 (CEST)St-Auban-Sur-Durance, France (7588): visibility: 12.10.2018 19:00:00 - 18.10.2018 19:00:00 (CEST)St-Auban-Sur-Durance, France (7588): sunshine duration: 12.10.2018 19:00:00 - 18.10.2018 19:00:00 (CEST)St-Auban-Sur-Durance, France (7588): precipitation: 12.10.2018 19:00:00 - 18.10.2018 19:00:00 (CEST)
Date & Time tt [°C] td [°C] tt 5cm [°C] tt -20cm [°C] ff [km/h] ff [kn] fx [km/h] fx [kn] dd ppp [hPa] vv [km] sd [min] rr [mm]
18.10.2018 19:00:00 - - - - - - - - - - - - -
18.10.2018 18:00:00 20,4 13,8 20,5 18,0 5 3 11 6 S 1012,5 20 0 0,0
18.10.2018 17:00:00 21,6 13,2 22,9 17,8 9 5 20 11 SW 1012,3 20 6 0,0
18.10.2018 16:00:00 21,9 13,0 24,0 17,5 12 6 17 9 SSW 1012,2 20 0 0,0
18.10.2018 15:00:00 22,3 12,8 26,5 17,3 11 6 17 9 SSW 1012,2 20 50 0,0
18.10.2018 14:00:00 22,3 11,7 26,8 17,1 7 4 14 8 SSW 1012,5 20 48 0,0
18.10.2018 13:00:00 21,7 12,8 26,3 17,0 3 1 15 8 SW 1013,2 20 60 0,0
18.10.2018 12:00:00 18,9 12,9 21,5 16,9 10 5 18 10 NNE 1014,0 20 51 0,0
18.10.2018 11:00:00 16,4 14,1 16,7 16,9 5 3 11 6 E 1014,9 20 22 0,0
18.10.2018 10:00:00 14,4 13,4 15,0 17,0 3 2 12 6 E 1015,4 15 2 0,0
18.10.2018 09:00:00 13,7 12,4 13,8 17,0 8 4 16 9 E 1015,4 20 4 0,0
18.10.2018 08:00:00 13,1 12,3 13,2 17,1 5 3 14 8 ENE 1015,2 20 0 0,0
18.10.2018 07:00:00 12,9 12,4 13,3 17,2 4 2 14 8 NE 1014,9 14 0 0,0
18.10.2018 06:00:00 13,1 12,5 13,3 17,2 3 2 10 5 E 1014,5 11 0 0,0
18.10.2018 05:00:00 12,7 12,5 12,6 17,3 4 2 8 4 E 1014,7 6 0 0,0
18.10.2018 04:00:00 13,5 13,3 13,5 17,4 5 3 8 4 E 1014,9 5 0 0,0
18.10.2018 03:00:00 14,2 13,9 14,7 17,4 3 2 6 3 ENE 1015,4 10 0 0,0
18.10.2018 02:00:00 14,4 14,1 14,9 17,5 3 2 6 3 ENE 1015,6 5 0 0,2
18.10.2018 01:00:00 14,6 14,0 15,0 17,5 2 1 6 3 E 1015,9 8 0 0,2
18.10.2018 00:00:00 15,0 13,9 15,3 17,5 2 1 5 3 E 1015,8 13 0 0,2
17.10.2018 23:00:00 15,3 14,0 15,6 17,5 3 1 6 4 NE 1016,0 18 0 0,0
17.10.2018 22:00:00 15,2 13,6 15,6 17,6 3 1 8 5 ENE 1015,7 20 0 0,0
17.10.2018 21:00:00 15,7 14,1 16,1 17,6 4 2 9 5 SE 1015,5 20 0 0,0
17.10.2018 20:00:00 16,0 14,4 16,3 17,5 0 0 6 4 N 1015,2 19 0 0,0
17.10.2018 19:00:00 16,6 14,6 16,8 17,5 3 2 5 3 NW 1014,6 20 0 0,0
17.10.2018 18:00:00 17,8 14,3 18,4 17,4 2 1 5 3 WNW 1014,2 20 0 0,0
17.10.2018 17:00:00 18,9 13,5 20,4 17,2 5 3 9 5 W 1014,1 20 5 0,0
17.10.2018 16:00:00 19,0 13,4 21,6 17,1 3 2 9 5 S 1014,3 20 0 0,0
17.10.2018 15:00:00 19,0 12,3 21,7 16,9 4 2 9 5 WSW 1014,6 20 0 0,0
17.10.2018 14:00:00 18,5 11,1 21,7 16,8 3 2 6 4 SSW 1015,1 20 0 0,0
17.10.2018 13:00:00 17,1 12,8 18,5 16,8 2 1 5 3 S 1016,3 20 1 0,0
17.10.2018 12:00:00 15,5 12,1 17,0 16,7 3 2 8 5 SSE 1017,2 20 0 0,0
17.10.2018 11:00:00 14,9 11,9 15,4 16,7 4 2 10 5 NE 1017,3 20 0 0,0
17.10.2018 10:00:00 13,7 12,1 14,2 16,7 2 1 11 6 E 1017,6 18 0 0,0
17.10.2018 09:00:00 13,1 11,8 13,4 16,8 3 2 8 5 NNE 1017,8 18 0 0,0
17.10.2018 08:00:00 12,7 12,2 13,2 16,8 4 2 8 4 NE 1017,5 12 0 0,0
17.10.2018 07:00:00 12,6 12,3 13,1 16,9 3 2 10 5 ENE 1017,8 7 0 0,0
17.10.2018 06:00:00 12,6 12,3 12,8 16,9 4 2 7 4 E 1017,8 5 0 0,0
17.10.2018 05:00:00 13,2 12,7 13,8 17,0 5 3 8 5 NNE 1018,0 9 0 0,4
17.10.2018 04:00:00 13,7 13,2 14,1 17,0 4 2 14 7 E 1018,0 7 0 0,0
17.10.2018 03:00:00 13,6 13,1 14,2 17,0 4 2 6 3 E 1018,3 4,9 0 0,2
17.10.2018 02:00:00 13,9 12,9 14,3 17,1 2 1 11 6 E 1018,7 11 0 0,0
17.10.2018 01:00:00 13,7 13,1 14,4 17,1 3 1 6 4 ENE 1018,6 10 0 0,0
17.10.2018 00:00:00 14,2 13,6 14,8 17,2 3 1 6 4 NE 1018,8 7 0 0,0
16.10.2018 23:00:00 14,5 13,9 14,9 17,2 0 0 4 2 N 1019,3 5 0 0,0
16.10.2018 22:00:00 14,8 13,8 15,0 17,2 0 0 6 3 N 1019,2 8 0 0,0
16.10.2018 21:00:00 15,1 14,0 15,4 17,2 0 0 11 6 N 1018,8 8 0 0,0
16.10.2018 20:00:00 15,6 13,8 16,1 17,2 7 4 11 6 W 1018,5 12 0 0,0
16.10.2018 19:00:00 16,4 14,1 17,1 17,1 8 5 13 7 W 1018,1 13 0 0,0
16.10.2018 18:00:00 17,1 14,0 18,0 17,0 11 6 18 10 SW 1017,2 16 0 0,0
16.10.2018 17:00:00 17,8 13,1 19,5 16,9 13 7 17 9 SW 1016,9 18 0 0,0
16.10.2018 16:00:00 19,1 9,3 22,6 16,7 8 4 20 11 N 1016,6 20 0 0,0
16.10.2018 15:00:00 18,7 9,5 20,7 16,6 8 4 14 8 NNE 1016,7 20 0 0,0
16.10.2018 14:00:00 17,5 12,4 19,7 16,5 2 1 6 3 E 1017,3 20 0 0,0
16.10.2018 13:00:00 16,1 11,7 17,1 16,4 3 1 5 3 N 1018,2 20 0 0,0
16.10.2018 12:00:00 14,4 11,7 14,7 16,4 2 1 6 3 NE 1018,6 20 0 0,0
16.10.2018 11:00:00 13,3 12,0 14,4 16,4 3 2 6 3 SE 1018,7 13 0 0,0
16.10.2018 10:00:00 12,9 11,6 13,2 16,4 2 1 6 3 E 1018,4 15 0 0,0
16.10.2018 09:00:00 12,6 11,7 12,4 16,5 2 1 9 5 ENE 1017,9 12 0 0,6
16.10.2018 08:00:00 12,7 10,1 12,7 16,5 3 2 7 4 N 1017,3 20 0 0,0
16.10.2018 07:00:00 13,6 9,0 13,8 16,6 2 1 7 4 E 1016,6 20 0 0,0
16.10.2018 06:00:00 13,6 9,8 13,9 16,6 5 3 8 5 NW 1016,5 20 0 0,0
16.10.2018 05:00:00 13,9 9,3 14,1 16,6 2 1 12 6 N 1016,1 20 0 0,0
16.10.2018 04:00:00 14,7 8,6 14,8 16,7 3 2 11 6 NE 1016,0 20 0 0,0
16.10.2018 03:00:00 15,6 7,1 15,4 16,8 7 4 14 8 W 1015,9 20 0 0,0
16.10.2018 02:00:00 15,7 8,0 15,5 16,8 9 5 15 8 SW 1015,9 20 0 0,0
16.10.2018 01:00:00 16,5 7,7 15,8 16,8 11 6 19 11 WSW 1015,8 20 0 0,0
16.10.2018 00:00:00 16,8 7,4 15,9 16,8 12 7 20 11 SW 1015,5 20 0 0,0
15.10.2018 23:00:00 16,8 6,3 16,0 16,9 9 5 16 9 WSW 1015,3 20 0 0,0
15.10.2018 22:00:00 17,0 6,8 16,4 16,9 3 1 15 8 W 1014,7 20 0 0,0
15.10.2018 21:00:00 18,7 5,2 17,9 16,9 5 3 25 13 SSW 1013,9 20 0 0,0
15.10.2018 20:00:00 19,6 5,6 19,0 16,9 9 5 29 15 SE 1013,3 20 0 0,0
15.10.2018 19:00:00 20,0 5,6 19,6 16,9 13 7 38 20 ESE 1012,4 20 0 0,0
15.10.2018 18:00:00 20,0 6,7 18,9 16,9 13 7 30 16 ESE 1011,9 20 0 0,0
15.10.2018 17:00:00 18,8 8,4 16,4 16,8 3 2 26 14 SSE 1012,1 20 0 0,0
15.10.2018 16:00:00 20,6 5,8 21,4 16,8 12 6 41 22 SE 1011,5 20 0 0,0
15.10.2018 15:00:00 20,5 5,3 19,5 16,7 10 6 32 18 ESE 1011,4 20 0 0,0
15.10.2018 14:00:00 20,3 4,7 21,1 16,6 14 8 48 26 ESE 1011,9 20 0 0,0
15.10.2018 13:00:00 20,5 4,9 21,4 16,6 29 15 58 31 SE 1012,8 20 0 0,0
15.10.2018 12:00:00 20,6 6,2 21,9 16,5 18 10 42 23 SE 1012,5 20 24 0,0
15.10.2018 11:00:00 20,0 6,3 19,6 16,5 17 9 33 18 ESE 1012,4 20 10 0,0
15.10.2018 10:00:00 17,9 7,0 15,9 16,6 9 5 16 9 SSE 1012,3 20 6 0,0
15.10.2018 09:00:00 14,3 8,0 11,6 16,7 4 2 12 7 WNW 1012,7 20 5 0,0
15.10.2018 08:00:00 12,5 7,4 11,1 16,9 6 3 18 10 NNW 1013,3 20 0 0,0
15.10.2018 07:00:00 11,6 7,3 10,8 17,0 9 5 14 8 WNW 1013,8 20 0 0,0
15.10.2018 06:00:00 11,2 6,9 10,3 17,1 8 4 14 7 WNW 1014,0 20 0 0,0
15.10.2018 05:00:00 11,3 6,8 10,3 17,3 8 4 13 7 WNW 1014,1 20 0 0,0
15.10.2018 04:00:00 11,6 6,7 10,6 17,4 6 4 11 6 WNW 1014,3 20 0 0,0
15.10.2018 03:00:00 11,5 7,2 10,4 17,5 4 2 15 8 SW 1014,9 20 0 0,0
15.10.2018 02:00:00 12,2 7,7 11,3 17,6 4 2 14 8 WSW 1015,1 20 0 0,0
15.10.2018 01:00:00 13,1 7,7 12,4 17,7 4 2 13 7 WSW 1014,9 20 0 0,0
15.10.2018 00:00:00 14,4 8,6 13,8 17,8 11 6 16 9 WSW 1015,1 20 0 0,0
14.10.2018 23:00:00 15,2 8,9 14,7 17,9 10 5 15 8 SW 1015,2 20 0 0,0
14.10.2018 22:00:00 15,7 8,9 15,7 17,9 6 3 19 10 SSW 1014,9 20 0 0,0
14.10.2018 21:00:00 16,1 9,3 15,5 18,0 14 8 20 11 SW 1014,5 20 0 0,0
14.10.2018 20:00:00 16,4 8,9 16,4 18,0 13 7 20 11 W 1014,3 20 0 0,0
14.10.2018 19:00:00 17,5 8,9 17,3 17,9 3 2 23 12 S 1013,6 20 16 0,0
14.10.2018 18:00:00 20,0 7,0 20,8 17,8 10 6 26 14 SSE 1013,2 20 17 0,0
14.10.2018 17:00:00 20,6 7,6 22,0 17,8 9 5 26 14 SSE 1013,2 20 21 0,0
14.10.2018 16:00:00 20,5 10,6 22,6 17,6 13 7 27 15 S 1013,5 20 0 0,0
14.10.2018 15:00:00 21,0 9,6 23,1 17,5 14 8 31 17 SSW 1013,7 20 1 0,0
14.10.2018 14:00:00 20,7 9,3 23,4 17,3 12 6 29 15 S 1014,4 20 0 0,0
14.10.2018 13:00:00 21,0 10,2 24,5 17,2 13 7 27 15 S 1015,5 20 8 0,0
14.10.2018 12:00:00 19,9 12,2 20,1 17,1 9 5 15 8 SSW 1016,1 20 35 0,0
14.10.2018 11:00:00 16,0 12,4 18,3 17,1 0 0 8 4 N 1017,0 20 22 0,0
14.10.2018 10:00:00 13,2 11,4 14,3 17,1 3 1 6 4 ENE 1017,8 20 60 0,0
14.10.2018 09:00:00 11,5 11,0 10,2 17,3 3 1 6 3 NE 1018,1 17 49 0,0
14.10.2018 08:00:00 9,9 9,4 10,0 17,4 4 2 7 4 NE 1018,0 10 0 0,0
14.10.2018 07:00:00 10,4 9,9 10,7 17,5 2 1 5 3 NE 1018,2 12 0 0,0
14.10.2018 06:00:00 10,5 9,9 10,6 17,6 2 1 6 3 ENE 1018,9 11 0 0,2
14.10.2018 05:00:00 10,8 10,2 11,0 17,7 5 3 7 4 NE 1019,1 11 0 0,0
14.10.2018 04:00:00 10,5 9,9 10,8 17,8 2 1 6 3 N 1019,5 12 0 0,0
14.10.2018 03:00:00 10,6 9,7 10,8 18,0 4 2 9 5 SE 1020,0 15 0 0,0
14.10.2018 02:00:00 11,3 9,9 11,4 18,1 6 3 11 6 ESE 1020,3 19 0 0,0
14.10.2018 01:00:00 12,4 10,8 12,2 18,2 9 5 16 9 ESE 1020,4 20 0 0,0
14.10.2018 00:00:00 11,9 10,5 11,7 18,3 5 3 13 7 ESE 1020,9 20 0 0,0
13.10.2018 23:00:00 12,1 10,5 11,7 18,4 7 4 12 7 SE 1021,0 20 0 0,0
13.10.2018 22:00:00 13,0 10,0 12,3 18,5 4 2 6 4 E 1020,9 20 0 0,0
13.10.2018 21:00:00 15,4 10,2 14,5 18,6 6 3 10 5 SW 1020,4 20 0 0,0
13.10.2018 20:00:00 16,6 11,1 15,6 18,6 9 5 14 8 SW 1020,2 20 0 0,0
13.10.2018 19:00:00 18,8 11,1 18,4 18,4 13 7 29 16 WSW 1019,6 20 24 0,0
13.10.2018 18:00:00 21,4 11,7 23,7 18,3 21 11 36 20 WSW 1018,7 20 60 0,0
13.10.2018 17:00:00 22,9 12,2 26,4 18,1 24 13 35 19 SW 1018,5 20 60 0,0
13.10.2018 16:00:00 23,5 12,5 28,0 17,8 20 11 29 16 SW 1018,8 20 60 0,0
13.10.2018 15:00:00 23,6 12,9 27,6 17,5 16 9 25 13 SW 1019,3 20 52 0,0
13.10.2018 14:00:00 22,7 12,3 28,3 17,2 13 7 22 12 SW 1020,2 20 60 0,0
13.10.2018 13:00:00 22,1 13,7 26,4 17,1 3 2 10 6 W 1021,2 20 60 0,0
13.10.2018 12:00:00 18,9 13,7 24,2 17,0 7 4 14 8 ENE 1022,6 20 60 0,0
13.10.2018 11:00:00 16,4 12,9 19,5 17,1 7 4 15 8 ENE 1023,9 20 60 0,0
13.10.2018 10:00:00 13,4 12,1 15,4 17,2 6 3 13 7 NE 1024,5 20 60 0,0
13.10.2018 09:00:00 11,7 11,7 10,6 17,3 5 3 10 5 NNE 1024,8 19 51 0,0
13.10.2018 08:00:00 10,0 9,8 10,3 17,4 7 4 13 7 NE 1025,1 11 0 0,0
13.10.2018 07:00:00 10,5 10,3 10,6 17,6 7 4 13 7 ENE 1025,1 10 0 0,0
13.10.2018 06:00:00 10,9 10,7 10,7 17,7 9 5 12 7 NNE 1025,0 18 0 0,0
13.10.2018 05:00:00 11,5 11,2 11,6 17,8 7 4 10 5 NNE 1025,2 18 0 0,0
13.10.2018 04:00:00 11,9 11,7 11,5 17,9 5 3 7 4 NE 1025,3 17 0 0,0
13.10.2018 03:00:00 12,1 11,9 12,2 18,0 6 3 12 6 NE 1025,5 17 0 0,0
13.10.2018 02:00:00 12,2 11,9 12,1 18,2 8 4 11 6 NNE 1025,5 20 0 0,0
13.10.2018 01:00:00 12,6 12,3 12,5 18,2 7 4 12 6 NE 1025,6 14 0 0,0
13.10.2018 00:00:00 13,2 12,7 12,8 18,3 6 3 10 5 NE 1025,9 15 0 0,2
12.10.2018 23:00:00 13,6 12,8 13,5 18,4 0 0 7 4 N 1026,0 20 0 0,0
12.10.2018 22:00:00 14,3 13,5 14,3 18,5 2 1 6 4 ESE 1025,7 20 0 0,0
12.10.2018 21:00:00 15,0 14,0 14,6 18,5 0 0 7 4 N 1025,3 20 0 0,0
12.10.2018 20:00:00 16,3 14,3 16,0 18,5 7 4 9 5 W 1024,5 20 0 0,0
12.10.2018 19:00:00 19,0 14,9 18,1 18,3 8 4 14 8 SW 1023,4 20 20 0,0

tt = temperature
td = dewpoint
tt 5cm = temperature 5cm
tt -20cm = temperature -20cm
ff = wind speed
fx = gusts
dd = wind direction
ppp = reduced air pressure
vv = visibility
sd = sunshine duration
rr = precipitation

Next stations